Levan Okriashvili

首席球探 - Shukura
4 四月 2027
星期日
處理

性格

適應力 (2) 野心 (13) 爭議性 (15) 忠誠度 (13) 抗壓 (3) 職業素養 (5) 體育精神 (4) 性情 (3)

個人檔案

執教風格 民主型
教練證照 洲際職業級
決心 7
人員管理 6
激勵 7
紀律 4
工作滿意度
0%
疲勞度
0%
職務 首席球探
薪資 7.3K 每週
合約 14.03.2028

性能

行為 普通
訓練效果
10%
球員發展
40%
傷病預防
35%
戰術執行
15%

近期事件

参加了招募会议 刚刚
参加了招募会议 刚刚
参加了招募会议 刚刚
参加了招募会议 刚刚
参加了招募会议 刚刚
参加了招募会议 刚刚
考察了一名球員 刚刚
考察了一名球員 刚刚

正在监控

157
球員 俱樂部 狀態 能力 信心 已观察 最后观察 最新投票
Tyrese Shade Burton Albion 活跃 81 / 78 40% 2 03.04.2027 -
Lewis McCann Fleetwood Town 活跃 96 / 102 40% 1 03.04.2027 -
Damir Céter Hamrun Spartans 活跃 91 / 108 40% 5 02.04.2027 -
Paul Mbong Floriana 活跃 108 / 90 40% 1 02.04.2027 -
Jacobo Alcalde SKA Khabarovsk 活跃 99 / 98 40% 1 31.03.2027 -
Denis Rubanov Dinamo Stavropol 活跃 93 / 82 40% 1 31.03.2027 -
Marcos Cuenca Zaragoza 活跃 132 / 95 40% 2 30.03.2027 -
Shayne Lavery Cambridge United 活跃 98 / 114 40% 1 30.03.2027 -
Negueba Mirassol 活跃 104 / 114 40% 1 27.03.2027 -
Mésaque Djú Portimonense 活跃 105 / 121 40% 1 27.03.2027 -
Stanislav Biblyk Chaika 活跃 85 / 102 40% 4 26.03.2027 -
Josh Woods Accrington Stanley 活跃 89 / 87 40% 2 25.03.2027 -
Alexandr Yushin Torpedo Moscow 活跃 107 / 115 40% 2 25.03.2027 -
Mo Dauda Portimonense 活跃 85 / 122 40% 2 24.03.2027 -
Pavel Meleshin Sochi 活跃 116 / 117 40% 1 24.03.2027 -
Kane Drummond Oldham Athletic 活跃 73 / 79 40% 1 22.03.2027 -
Miguel Falé Pacos de Ferreira 活跃 83 / 84 40% 1 18.03.2027 -
Pavel Popov Volna 活跃 93 / 93 40% 1 18.03.2027 -
Mohamed Mallahi Pro Vercelli 活跃 115 / 90 40% 1 17.03.2027 -
Yeangel Montero Naxxar Lions 活跃 97 / 109 40% 9 16.03.2027 -
Leonardo Bellini Pianese 活跃 99 / 98 40% 1 16.03.2027 -
Marcus Browne AFC Wimbledon 活跃 95 / 118 40% 2 15.03.2027 -
Vladislav Yakovlev Volga 活跃 79 / 85 40% 1 15.03.2027 -
Mason Bennett Harrogate Town 活跃 68 / 98 40% 5 13.03.2027 -
Ebuka Ogbonna US Forces Armees 活跃 69 / 78 40% 1 13.03.2027 -
Nouhou Cissé Real Bamako 活跃 95 / 113 40% 1 11.03.2027 -
Paublo Jara Chelyabinsk 活跃 86 / 80 40% 2 10.03.2027 -
Albek Gongapshev Shinnik 活跃 100 / 92 40% 2 10.03.2027 -
Elliott List Northampton Town 活跃 82 / 104 40% 1 08.03.2027 -
Gilson Benchimol Akron 活跃 107 / 123 40% 1 08.03.2027 -
Ilja Safronov Rotor 活跃 115 / 109 40% 2 02.03.2027 -
Alexandr Saplinov Volga 活跃 86 / 108 40% 2 27.02.2027 -
Patrick Schmidt Tarxien Rainbows 活跃 104 / 86 40% 6 25.02.2027 -
Shawn McCoulsky Harrogate Town 活跃 70 / 102 40% 3 25.02.2027 -
Jaze Kabia Grimsby Town 活跃 79 / 115 40% 1 24.02.2027 -
Paul Glatzel Swindon Town 活跃 104 / 107 40% 1 23.02.2027 -
Piotr Samiec-Talar Slask 活跃 121 / 117 40% 1 20.02.2027 -
Jeremiah Okine-Peters Salyut 活跃 72 / 86 40% 1 20.02.2027 -
Mateo Fernández Angusht 活跃 85 / 73 40% 3 17.02.2027 -
Ivan Bendera Epicentr 活跃 106 / 90 40% 1 17.02.2027 -
Ayom Majok Zabbar St. Patrick 活跃 69 / 70 40% 2 15.02.2027 -
Silas Nwankwo Police Union 活跃 76 / 100 40% 1 13.02.2027 -
Franklin Sasere Birkirkara 活跃 91 / 101 40% 3 12.02.2027 -
Dmitry Kuptsov Spartak Tambov 活跃 86 / 66 40% 1 12.02.2027 -
Stephen Humphrys Bradford City 活跃 127 / 109 40% 1 11.02.2027 -
Milan Vidakov Radnicki 1923 已拒绝 105 / 104 40% 3 09.02.2027 拒绝
Georg Stojanovski Spartak 1918 活跃 100 / 109 40% 1 09.02.2027 -
Sam Nombe Milton Keynes Dons 活跃 100 / 109 40% 2 07.02.2027 -
Daniel Udoh Salford City 活跃 89 / 86 40% 2 04.02.2027 -
Vitaly Dunay (Karpenko) Chaika 活跃 96 / 90 40% 2 03.02.2027 -
Artem Shabolin Orel 活跃 72 / 84 40% 1 03.02.2027 -
Johnson Amuzu Berekum Chelsea 活跃 102 / 93 40% 1 02.02.2027 -
Jonathan Okoronkwo Torpedo Moscow 活跃 100 / 118 40% 1 02.02.2027 -
Carlos Zepeda Kvant 活跃 81 / 92 40% 1 01.02.2027 -
Patryk Szwedzik Ruch 活跃 87 / 106 40% 1 30.12.2026 -
Jack Vale Alcione Milano 活跃 105 / 113 40% 1 27.12.2026 -
Daniil Agureev Amkar 活跃 87 / 99 40% 2 26.12.2026 -
Ivan Luquetta Neftekhimik 活跃 85 / 99 40% 2 25.12.2026 需要更多信息
Evgeny Voronin Volga 活跃 93 / 79 40% 1 25.12.2026 -
Giancarlo Mosta 活跃 64 / 102 40% 1 24.12.2026 -
Carlos Fernández Hamrun Spartans 活跃 67 / 82 40% 1 23.12.2026 -
Miullen Hibernians 活跃 76 / 84 40% 1 18.12.2026 -
Jere Vrcić Birkirkara 活跃 111 / 98 40% 2 17.12.2026 -
Kamran Aliev SKA Khabarovsk 活跃 91 / 114 40% 3 15.12.2026 观察
Braian Álvarez Arsenal Tula 活跃 106 / 99 40% 2 14.12.2026 -
Emmanuel Ini AS Korofina 活跃 60 / 77 40% 1 14.12.2026 -
Jurgen Degabriele Hibernians 活跃 103 / 72 40% 1 14.12.2026 -
Daniel Rivillo Rotor 活跃 117 / 102 40% 1 14.12.2026 -
Realdo Fili Khazar 活跃 109 / 87 40% 2 11.12.2026 -
James Kirby Marsaxlokk 活跃 75 / 80 40% 1 11.12.2026 -
Claudio Salto Almagro 谈判中 98 / 109 40% 4 10.12.2026 观察
Lucas González Estudiantes 活跃 96 / 85 40% 2 10.12.2026 需要更多信息
Manu Garrido Vizela 活跃 111 / 99 40% 1 09.12.2026 需要更多信息
Danila Shilov Dinamo Stavropol 活跃 97 / 96 40% 1 08.12.2026 需要更多信息
Lyes Houri Dinamo Tbilisi 活跃 112 / 120 40% 1 08.12.2026 -
Rodrigo Marquês Oliveirense 活跃 69 / 107 40% 1 05.12.2026 -
Louis Appéré Cambridge United 活跃 82 / 84 40% 1 05.12.2026 -
Sebastián Valenzuela Yenisey 活跃 87 / 81 40% 1 05.12.2026 -
Akin Odimayo Crawley Town 活跃 80 / 100 40% 2 04.12.2026 -
Jonathan Sulemana BA All Stars 活跃 113 / 103 40% 1 04.12.2026 -
Zurab Museliani Dila 活跃 97 / 80 40% 2 02.12.2026 -
Fərid Nəbiyev Kapaz 活跃 97 / 109 40% 1 30.11.2026 -
Julen Cordero Samtredia 活跃 113 / 92 40% 1 29.11.2026 -
Dilan Ortíz Ufa 活跃 104 / 102 40% 1 29.11.2026 -
Luís Mota Zabbar St. Patrick 活跃 92 / 95 40% 2 27.11.2026 -
Cristhian Medina Smorgon 活跃 86 / 94 40% 1 26.11.2026 -
Gonzalo Asis Almagro 活跃 92 / 126 40% 2 25.11.2026 -
Nikita Pogrebnev Ryazan 活跃 75 / 74 40% 1 25.11.2026 -
Ousmane Diawara Altach 活跃 87 / 103 40% 3 23.11.2026 -
Cavid Madatov Khazar 活跃 101 / 88 40% 1 23.11.2026 -
Migran Ageyan Ufa 活跃 91 / 112 40% 1 22.11.2026 -
Vilim Krušlin Sesvete 活跃 109 / 105 40% 1 22.11.2026 -
Géza Dávid Turi Grimsby Town 活跃 116 / 90 40% 1 22.11.2026 -
Daniel Tarazona Neftchi 活跃 86 / 84 40% 1 19.11.2026 -
Nhayson Tarxien Rainbows 活跃 98 / 86 40% 1 18.11.2026 -
Vladislav Kamilov Ufa 活跃 110 / 87 40% 1 18.11.2026 -
Léo Cordeiro Ural 活跃 120 / 104 40% 1 16.11.2026 -
Mark Helm Fleetwood Town 活跃 94 / 122 40% 1 16.11.2026 -
Javohir Esonqulov Merani 活跃 84 / 82 40% 1 14.11.2026 -
Kamarai Swyer Northampton Town 活跃 82 / 108 40% 1 14.11.2026 -
Robert Murić Floriana 活跃 91 / 86 40% 1 13.11.2026 -
Vincent Temitope Plateau United 活跃 87 / 70 40% 2 12.11.2026 -
Manprit Sarkaria Austria Wien 活跃 109 / 114 40% 1 10.11.2026 -
Cleiton Robozão Hibernians 活跃 66 / 93 40% 2 09.11.2026 -
Aleksej Golijanin Sokol 活跃 84 / 99 40% 1 09.11.2026 -
Ramil Şeydayev Kapaz 活跃 104 / 109 40% 1 07.11.2026 -
Nichita Moțpan SKA Khabarovsk 活跃 113 / 87 40% 1 07.11.2026 -
Rodin Quiñónes Dinamo Batumi 活跃 106 / 117 40% 4 05.11.2026 -
Mohamed Cherif Torpedo Kutaisi 活跃 100 / 83 40% 1 05.11.2026 -
Sebastian Mailat Botosani 活跃 136 / 129 40% 3 02.11.2026 -
Jack Lankester Crewe Alexandra 活跃 78 / 103 40% 1 02.11.2026 -
Félix Villacorta Orenburg 活跃 96 / 104 40% 1 02.11.2026 -
Théo Berdayes Sion 活跃 97 / 104 40% 2 01.11.2026 -
Václav Sejk Sigma Olomouc 活跃 121 / 126 40% 1 01.11.2026 -
Alexandr Olenev Nart 活跃 69 / 97 40% 1 29.10.2026 -
Alexandr Dolgov Amkar 活跃 82 / 88 40% 1 28.10.2026 -
Hakeeb Adelakun Doncaster Rovers 活跃 108 / 126 40% 3 26.10.2026 -
Davit Gotsiridze Kolkheti 活跃 64 / 79 40% 2 26.10.2026 -
Alejandro Melo Temperley 活跃 126 / 125 40% 1 23.10.2026 -
Nohan Kenneh Tranmere Rovers 活跃 77 / 108 40% 1 22.10.2026 -
Ivan Selemenev Mashuk 活跃 82 / 68 40% 1 22.10.2026 -
Luis Alberto Márquez Yenisey 活跃 87 / 101 40% 1 19.10.2026 -
Julián Moya Gimnasia y Esgrima 活跃 113 / 119 40% 1 19.10.2026 -
Jurica Poldrugač Rudes 活跃 111 / 100 40% 2 18.10.2026 -
Remeao Hutton Gillingham 活跃 89 / 71 40% 1 18.10.2026 -
Nika Kalandarishvili Dinamo Batumi 活跃 84 / 104 40% 1 17.10.2026 -
Benjamin Böckle Altach 活跃 124 / 132 40% 1 17.10.2026 -
Ilja Stefanovich Leningradets 活跃 108 / 81 40% 1 16.10.2026 -
Giorgi Tsetskhladze Kolkheti 活跃 108 / 84 40% 1 16.10.2026 -
Fletcher Holman Swindon Town 活跃 106 / 98 40% 1 14.10.2026 -
Ricardo Solbes Unión de Santa Fe 活跃 73 / 98 40% 1 12.10.2026 -
Edixon Mena FCI Tallinn 活跃 83 / 90 40% 1 10.10.2026 -
Anthony Lokosa Tarxien Rainbows 活跃 81 / 96 40% 2 09.10.2026 -
Guram Japaridze Dinamo Batumi 活跃 109 / 100 40% 1 09.10.2026 -
Dmitry Usov Textilschik 活跃 91 / 90 40% 1 09.10.2026 -
Tiago Benzi Belgrano 活跃 88 / 99 40% 1 07.10.2026 -
Francisco Galván Deportivo Municipal 活跃 107 / 97 40% 1 05.10.2026 -
Marco Rossello Probiy 活跃 81 / 74 40% 1 19.09.2026 -
Elías Peralta San Telmo 活跃 106 / 111 40% 1 19.09.2026 -
Diamanka Senghor Mosta 活跃 113 / 110 40% 1 17.09.2026 -
Vinicius Baiano Naxxar Lions 活跃 66 / 89 40% 1 17.09.2026 -
Kirill Kirilenko Dnepr Mogilev 活跃 91 / 90 40% 1 13.09.2026 -
Oliver Heiðarsson Lokomotiva Zagreb 活跃 110 / 114 40% 1 13.09.2026 -
Matty Stevens AFC Wimbledon 活跃 86 / 128 40% 1 11.09.2026 -
Marcus Wyllie Burton Albion 活跃 63 / 83 40% 1 11.09.2026 -
Christian Valladolid Alianza Atletico 活跃 100 / 65 40% 1 08.09.2026 -
Pachu Kapaz 活跃 108 / 87 40% 1 03.09.2026 -
Gabriel Monjes Paide 活跃 73 / 79 40% 1 01.09.2026 -
Salvador Martínez Ferro Carril Oeste 活跃 58 / 90 40% 1 01.09.2026 -
Yegor Kortsov Dinamo Brest 活跃 97 / 117 40% 1 31.08.2026 -
Tomás Salteño Rosario Central 活跃 68 / 115 40% 1 24.08.2026 -
Mateo Ortale Maipú 活跃 77 / 113 40% 1 17.08.2026 -
Alejandro Samudio Nacional 活跃 107 / 87 40% 1 17.08.2026 -
Beka Zivzivadze Zugdidi 活跃 50 / 74 37% 1 10.08.2026 -
Vakhtang Janelidze Tskhinvali 活跃 63 / 57 37% 1 03.08.2026 -
Gonzalo Berterame Morón 活跃 88 / 137 40% 1 01.08.2026 -
Agustín Paz Progreso 活跃 91 / 132 40% 1 01.08.2026 -